User: anonymous   Login
Location: Unspecified
(0.0000°N, 0.0000°E)
Time: 00:07:43
(UTC+00:00)
Language:

Intelsat V F4 - Orbit

View from above orbital plane
View from above orbital plane
View from above satellite
View from above satellite

Ground track
Ground track

The orbit data is extracted from the following two-line orbital elements,

1 13083U 82017A   18112.38763264 -.00000045  00000-0  00000+0 0  9994
2 13083  14.9048 352.1209 0020098 182.3977  15.1334  0.99227890112244
Epoch (UTC): 22 April 2018 09:18:11
Eccentricity: 0.0020098
inclination: 14.9048°
perigee height: 35996 km
apogee height: 36167 km
right ascension of ascending node: 352.1209°
argument of perigee: 182.3977°
revolutions per day: 0.99227890
mean anomaly at epoch: 15.1334°
orbit number at epoch: 11224

The dashed part of the orbit path shows where the satellite is in the earth's shadow,  

DLR